sat.trackr.live / text

‹ back to catalog

STARLINK-34488

NORAD 64604 · 2025-137L

PAYLOAD ACTIVE UNKNOWN

§ Identity

Operator
Country
US
Launch date
2025-06-25
Launch site
AFETR
Launch vehicle
Mass (kg)
RCS (m²)

Purposes: comms

External: N2YO · Heavens-Above · Gunter

§ Orbital elements

Epoch: 2026-05-24T22:55:51.164256Z

Period
94.11 min
Inclination
53.1596°
Eccentricity
0.0000992
Mean motion
15.30203330 rev/d
Perigee alt
474.5 km
Apogee alt
475.9 km
Semi-major
6,853.3 km
B*
9.9390e-4
RAAN
340.8394°
Arg perigee
84.1912°
Mean anomaly
275.9202°
Rev number
5,241

§ Raw data

STARLINK-344881 64604U 25137L   26144.95545329  .00029196  00000+0  99390-3 0  99962 64604  53.1596 340.8394 0000992  84.1912 275.9202 15.30203330 52416

JSON: /api/v1/satellites/64604 · /tle

For live sub-satellite position, see the globe view (requires WebGL).

§ Visibility from observer

Set your observer location to see the next 7 days of passes ≥ 10°. The values pass through the URL so the page stays shareable.

No JS? Fill the form by hand. The geolocation button needs JavaScript.